User: anonymous   Login
Location: Freistadt
(48.5112°N, 14.5013°E)
Time: 09:02:02
(UTC+02:00)
Language:

VELOX 1 - Orbit

View from above orbital plane
View from above orbital plane
View from above satellite
View from above satellite

Ground track
Ground track

The orbit data is extracted from the following two-line orbital elements,

1 40057U 14034E   24104.85501070  .00004989  00000-0  59022-3 0  9996
2 40057  98.3501 316.9328 0009035 358.1406   1.9772 14.85070932528156
Epoch (UTC): 13 April 2024 20:31:12
Eccentricity: 0.0009035
inclination: 98.3501°
perigee height: 607 km
apogee height: 619 km
right ascension of ascending node: 316.9328°
argument of perigee: 358.1406°
revolutions per day: 14.85070932
mean anomaly at epoch: 1.9772°
orbit number at epoch: 52815

The dashed part of the orbit path shows where the satellite is in the earth's shadow,  

DLR